User: anonymous   Login
Location: Cherry Springs State Park
(41.6616°N, 77.8240°W)
Time: 20:02:58
(UTC-04:00)
Language:

Cosmos 1437 - Orbit

View from above orbital plane
View from above orbital plane
View from above satellite
View from above satellite

Ground track
Ground track

The orbit data is extracted from the following two-line orbital elements,

1 13770U 83003A   15180.90889353  .00005113  00000-0  12623-3 0  9999
2 13770 081.1628 303.7259 0008003 251.7094 247.9467 15.40265383775526
Epoch (UTC): 29 June 2015 21:48:48
Eccentricity: 0.0008003
inclination: 81.1628°
perigee height: 440 km
apogee height: 451 km
right ascension of ascending node: 303.7259°
argument of perigee: 251.7094°
revolutions per day: 15.40265383
mean anomaly at epoch: 247.9467°
orbit number at epoch: 77552

The dashed part of the orbit path shows where the satellite is in the earth's shadow,  

DLR